Weather observations for the past three days for
The Dalles Municipal Airport
Metric (Imperial)
Date Time (pdt) Wind (kph) Vis. (km) Weather Sky Cond. Temperature (ºC) Relative Humidity Wind Chill (°C) Heat Index (°C) Pressure Precipitation (cm)
Air Dwpt 6 hour altimeter (cm) sea level (mb) 1 hr 3 hr 6 hr
Max. Min.
18 09:53 NW 24 16.09 Fair CLR 26.1 12.8 44% 26 76.17 1015.3
18 08:53 NW 28 16.09 Fair CLR 23.3 12.8 52% 76.2 1015.7
18 07:53 NW 20 G 37 16.09 Fair CLR 21.7 12.8 57% 76.23 1015.9
18 06:53 NW 20 16.09 Fair CLR 21.1 12.8 59% 76.2 1015.6
18 05:53 W 13 16.09 Fair CLR 20.6 12.8 61% 76.15 1015.1
18 04:53 SW 6 16.09 Fair CLR 20.6 13.9 26.7 20.6 66% 76.12 1014.5
18 03:53 NW 19 16.09 Fair CLR 21.7 14.4 63% 76.05 1013.7
18 02:53 NW 11 16.09 Fair CLR 22.8 14.4 59% 76.05 1013.7
18 01:53 NW 17 16.09 Fair CLR 23.9 14.4 55% 25 76.05 1013.7
18 00:53 NW 20 16.09 Fair CLR 25.6 13.9 48% 26 76.07 1013.8
17 23:53 NW 19 16.09 Fair CLR 26.1 13.3 45% 26 76.02 1013.4
17 22:53 NW 24 G 37 16.09 Fair CLR 26.1 13.9 32.2 26.1 47% 27 76 1013.1
17 21:53 NW 31 16.09 Fair CLR 27.2 13.9 44% 27 75.97 1012.7
17 20:53 NW 31 G 43 16.09 Fair CLR 27.8 14.4 44% 28 75.92 1012.1
17 19:53 NW 33 G 54 16.09 Fair and Breezy CLR 28.9 15 43% 29 75.87 1011.3
17 18:53 NW 30 G 46 16.09 Fair CLR 30.6 15 39% 30 75.84 1010.9
17 17:53 NW 33 G 50 16.09 Fair and Breezy CLR 32.2 13.9 33% 31 75.82 1010.6
17 16:53 NW 35 G 52 16.09 Fair and Breezy CLR 32.2 14.4 32.2 22.2 34% 32 75.84 1010.8
17 15:53 NW 28 G 48 16.09 Fair CLR 31.1 15.6 39% 31 75.87 1011.1
17 14:53 NW 39 G 56 16.09 Fair and Breezy CLR 28.9 16.1 46% 29 75.92 1011.8
17 13:53 NW 33 G 52 16.09 Thunderstorm in Vicinity and Breezy CLR 25 15 54% 26 75.95 1012.2
17 12:53 NW 30 G 44 16.09 Fair CLR 25 15 54% 26 75.92 1012.1
17 11:53 NW 28 G 43 16.09 Fair CLR 23.3 15 60% 75.92 1012.0
17 10:53 NW 24 G 41 16.09 Fair CLR 22.8 15 27.8 21.1 62% 75.92 1012.1
17 09:53 NW 26 G 39 16.09 Partly Cloudy FEW055 FEW070 SCT110 22.2 15.6 66% 75.9 1011.6
17 08:53 NW 24 G 39 16.09 Fair CLR 24.4 14.4 54% 26 75.87 1011.3
17 07:53 NW 7 16.09 Fair CLR 26.1 14.4 49% 27 75.9 1011.7
17 06:53 NW 9 16.09 Fair CLR 25.6 14.4 50% 26 75.87 1011.1
17 05:53 W 19 16.09 Fair CLR 26.1 13.3 45% 26 75.87 1011.3
17 04:53 S 7 16.09 Fair CLR 27.2 13.9 30.6 27.2 44% 27 75.92 1011.8
17 03:53 W 35 G 52 16.09 Fair and Breezy CLR 28.3 13.3 40% 28 75.77 1009.9
17 02:53 N 13 16.09 Fair CLR 28.3 14.4 43% 28 75.87 1011.2
17 01:53 SW 7 G 28 16.09 Fair CLR 28.9 13.9 40% 28 75.74 1009.6
17 00:53 N 15 16.09 Fair CLR 27.2 11.1 37% 27 75.77 1009.8
16 23:53 NW 11 16.09 Fair CLR 28.9 13.3 38% 28 75.72 1009.1
16 22:53 Calm 16.09 Fair CLR 30.6 12.8 40 30 34% 30 75.74 1009.4
16 21:53 NW 13 16.09 Fair CLR 31.7 12.2 30% 31 75.67 1008.5
16 20:53 NW 17 16.09 Fair CLR 32.2 10.6 26% 31 75.62 1007.8
16 19:53 NW 22 16.09 Fair CLR 34.4 7.2 18% 32 75.62 1007.8
16 18:53 NW 19 16.09 Fair CLR 37.2 7.2 16% 35 75.62 1007.8
16 17:53 NW 13 16.09 Fair CLR 39.4 2.8 10% 36 75.64 1008.1
16 16:53 NW 17 16.09 Fair CLR 39.4 1.7 40 28.3 9% 36 75.69 1008.8
16 15:53 SE 6 16.09 Fair CLR 38.3 0 9% 35 75.74 1009.4
16 14:53 Vrbl 11 16.09 Fair CLR 37.8 5.6 14% 35 75.79 1010.3
16 13:53 Vrbl 7 16.09 Fair CLR 36.1 3.9 13% 34 75.87 1011.1
16 12:53 Vrbl 9 16.09 Fair CLR 33.9 8.3 21% 32 75.95 1012.1
16 11:53 Calm 16.09 Fair CLR 31.1 12.8 33% 30 76 1012.9
16 10:53 NW 9 16.09 Fair CLR 28.3 13.9 28.9 15.6 41% 28 76.05 1013.5
16 09:53 Calm 16.09 Fair CLR 26.1 13.3 45% 26 76.07 1013.9
16 08:53 Calm 16.09 Fair CLR 23.9 12.2 48% 25 76.1 1014.2
16 07:53 NW 6 16.09 Fair CLR 21.1 10.6 51% 76.1 1014.3
16 06:53 SE 13 16.09 Fair CLR 17.8 5 43% 76.07 1014.2
16 05:53 Calm 16.09 Fair CLR 16.7 5 46% 76.07 1013.9
16 04:53 SE 6 16.09 Fair CLR 17.2 7.2 26.1 16.1 52% 76.02 1013.4
16 03:53 SE 7 16.09 Fair CLR 17.8 7.2 50% 76 1012.9
16 02:53 W 9 16.09 Fair CLR 22.2 13.9 59% 75.97 1012.6
16 01:53 Calm 16.09 Fair CLR 23.3 11.7 48% 75.95 1012.2
16 00:53 NW 30 G 44 16.09 Fair CLR 24.4 13.9 52% 26 75.95 1012.1
15 23:53 NW 24 16.09 Fair CLR 25 13.3 48% 26 75.92 1012.0
15 22:53 NW 22 16.09 Fair CLR 25.6 13.3 33.3 25.6 47% 26 75.92 1012.0
15 21:53 NW 9 16.09 Fair CLR 26.7 12.2 41% 27 75.92 1012.1
15 20:53 NW 15 16.09 Fair CLR 27.8 12.2 38% 27 75.92 1011.8
15 19:53 NW 24 G 39 16.09 Light Rain CLR 30 11.1 31% 29 75.87 1011.2
15 18:53 NW 28 16.09 Fair CLR 30 8.9 27% 29 75.87 1011.3
15 17:53 NW 28 G 43 16.09 Fair CLR 31.7 8.3 23% 30 75.9 1011.6
15 16:53 NW 37 G 50 16.09 Fair and Breezy CLR 32.2 6.7 33.3 27.2 20% 30 75.92 1012.0
15 15:53 NW 37 G 54 16.09 Fair and Breezy CLR 31.7 7.2 22% 30 75.97 1012.7
15 14:53 NW 35 G 50 16.09 Fair and Breezy CLR 31.7 6.7 21% 30 76.02 1013.2
15 13:53 NW 33 16.09 Fair and Breezy CLR 31.7 7.8 23% 30 76.05 1013.7
15 12:53 NW 35 G 48 16.09 Fair and Breezy CLR 31.1 9.4 26% 30 76.1 1014.1
15 11:53 NW 30 G 43 16.09 Fair CLR 29.4 10.6 31% 28 76.12 1014.7
15 10:53 NW 24 G 37 16.09 Fair CLR 27.2 11.1 27.2 17.8 37% 27 76.2 1015.6
Date Time (pdt) Wind (kph) Vis. (km) Weather Sky Cond. Air Dwpt Max. Min. Relative Humidity Wind Chill (°C) Heat Index (°C) altimeter (cm) sea level (mb) 1 hr 3 hr 6 hr
6 hour
Temperature (ºC) Pressure Precipitation (cm)